| time (UTC) | temp C | wind direction | speed KPH | gust KPH | rain 1hr cm | rain 24hr cm | rain mn cm | humidity % | barometer mb |
| 20260505003050 | 8 | 302 | 12.9 | 17.7 | 0.00 | 0.00 | 0.00 | 50 | 1006.3 |
| 20260505002549 | 8 | 334 | 9.7 | 24.1 | 0.00 | 0.00 | 0.00 | 50 | 1006.4 |
| 20260505002043 | 8 | 285 | 9.7 | 16.1 | 0.00 | 0.00 | 0.00 | 52 | 1006.5 |
| 20260505001540 | 8 | 49 | 9.7 | 20.9 | 0.00 | 0.00 | 0.00 | 51 | 1006.5 |
| 20260505001037 | 8 | 319 | 8.0 | 11.3 | 0.00 | 0.00 | 0.00 | 53 | 1006.5 |
| 20260505000535 | 8 | 337 | 9.7 | 20.9 | 0.00 | 0.00 | 0.00 | 50 | 1006.2 |
| 20260505000032 | 8 | 284 | 4.8 | 14.5 | 0.00 | 0.00 | 0.00 | 51 | 1006.3 |
| 20260504235529 | 8 | 293 | 4.8 | 17.7 | 0.00 | 0.00 | 0.00 | 49 | 1006.5 |
| 20260504235025 | 8 | 319 | 9.7 | 22.5 | 0.00 | 0.00 | 0.00 | 50 | 1006.3 |
| 20260504234522 | 8 | 307 | 14.5 | 27.4 | 0.00 | 0.00 | 0.00 | 50 | 1006.3 |
| 20260504234019 | 8 | 328 | 17.7 | 22.5 | 0.00 | 0.00 | 0.00 | 48 | 1006.4 |
| 20260504233515 | 8 | 273 | 12.9 | 27.4 | 0.00 | 0.00 | 0.00 | 49 | 1006.4 |
| 20260504233012 | 8 | 310 | 9.7 | 25.7 | 0.00 | 0.00 | 0.00 | 48 | 1006.3 |
| 20260504232509 | 8 | 273 | 16.1 | 25.7 | 0.00 | 0.00 | 0.00 | 48 | 1006.3 |
| 20260504232007 | 8 | 245 | 14.5 | 17.7 | 0.00 | 0.00 | 0.00 | 50 | 1006.3 |
| 20260504231503 | 8 | 321 | 17.7 | 22.5 | 0.00 | 0.00 | 0.00 | 49 | 1006.1 |
| 20260504230959 | 8 | 258 | 9.7 | 14.5 | 0.00 | 0.00 | 0.00 | 49 | 1006.2 |
| 20260504230455 | 8 | 337 | 12.9 | 14.5 | 0.00 | 0.00 | 0.00 | 49 | 1006.3 |
| 20260504225954 | 8 | 275 | 14.5 | 16.1 | 0.00 | 0.00 | 0.00 | 47 | 1006.2 |
| 20260504225451 | 8 | 281 | 17.7 | 25.7 | 0.00 | 0.00 | 0.00 | 46 | 1006.2 |
| 20260504224948 | 8 | 302 | 17.7 | 27.4 | 0.00 | 0.00 | 0.00 | 47 | 1006.3 |
| 20260504224444 | 8 | 271 | 11.3 | 17.7 | 0.00 | 0.00 | 0.00 | 47 | 1006.3 |
| 20260504223941 | 8 | 338 | 11.3 | 14.5 | 0.00 | 0.00 | 0.00 | 46 | 1006.3 |
| 20260504223437 | 8 | 320 | 16.1 | 22.5 | 0.00 | 0.00 | 0.00 | 47 | 1006.4 |
| 20260504222933 | 8 | 338 | 16.1 | 20.9 | 0.00 | 0.00 | 0.00 | 47 | 1006.3 |
| 20260504222431 | 8 | 297 | 12.9 | 20.9 | 0.00 | 0.00 | 0.00 | 47 | 1006.0 |
| 20260504221929 | 8 | 329 | 11.3 | 25.7 | 0.00 | 0.00 | 0.00 | 48 | 1006.1 |
| 20260504221425 | 8 | 32 | 9.7 | 16.1 | 0.00 | 0.00 | 0.00 | 48 | 1006.0 |
| 20260504220922 | 8 | 297 | 9.7 | 14.5 | 0.00 | 0.00 | 0.00 | 50 | 1006.1 |
| 20260504220419 | 8 | 306 | 17.7 | 25.7 | 0.00 | 0.00 | 0.00 | 48 | 1006.1 |
| 20260504215916 | 8 | 296 | 17.7 | 25.7 | 0.00 | 0.00 | 0.00 | 47 | 1006.1 |
| 20260504215413 | 8 | 280 | 12.9 | 16.1 | 0.00 | 0.00 | 0.00 | 46 | 1006.1 |
| 20260504214909 | 8 | 273 | 16.1 | 30.6 | 0.00 | 0.00 | 0.00 | 50 | 1006.0 |
| 20260504214406 | 7 | 299 | 17.7 | 20.9 | 0.00 | 0.00 | 0.00 | 51 | 1006.2 |
| 20260504213903 | 7 | 300 | 17.7 | 25.7 | 0.00 | 0.00 | 0.00 | 51 | 1006.0 |
| 20260504213358 | 7 | 318 | 14.5 | 20.9 | 0.00 | 0.00 | 0.00 | 52 | 1006.0 |
| 20260504212856 | 7 | 256 | 16.1 | 22.5 | 0.00 | 0.00 | 0.00 | 53 | 1005.9 |
| 20260504212351 | 7 | 307 | 14.5 | 20.9 | 0.00 | 0.00 | 0.00 | 52 | 1006.3 |
| 20260504211850 | 7 | 285 | 9.7 | 17.7 | 0.00 | 0.00 | 0.00 | 56 | 1005.9 |
| 20260504211346 | 7 | 7 | 8.0 | 20.9 | 0.00 | 0.00 | 0.00 | 53 | 1005.9 |
| 20260504210843 | 7 | 295 | 9.7 | 24.1 | 0.00 | 0.00 | 0.00 | 52 | 1006.0 |
| 20260504210340 | 8 | 295 | 9.7 | 27.4 | 0.00 | 0.00 | 0.00 | 53 | 1005.9 |
| 20260504205837 | 8 | 308 | 9.7 | 25.7 | 0.00 | 0.00 | 0.00 | 52 | 1005.6 |
| 20260504205335 | 8 | 294 | 11.3 | 20.9 | 0.00 | 0.00 | 0.00 | 53 | 1005.8 |
| 20260504204833 | 8 | 314 | 14.5 | 33.8 | 0.00 | 0.00 | 0.00 | 52 | 1005.5 |
| 20260504204331 | 8 | 304 | 19.3 | 27.4 | 0.00 | 0.00 | 0.00 | 53 | 1005.5 |
| 20260504203830 | 9 | 310 | 16.1 | 25.7 | 0.00 | 0.00 | 0.00 | 52 | 1005.3 |
| 20260504203327 | 8 | 320 | 11.3 | 25.7 | 0.00 | 0.00 | 0.00 | 52 | 1005.3 |
| 20260504202822 | 9 | 277 | 12.9 | 37.0 | 0.00 | 0.00 | 0.00 | 51 | 1005.3 |
| 20260504202320 | 9 | 299 | 17.7 | 27.4 | 0.00 | 0.00 | 0.00 | 51 | 1005.2 |
| 20260504201816 | 9 | 287 | 20.9 | 27.4 | 0.00 | 0.00 | 0.00 | 49 | 1005.1 |
| 20260504201314 | 9 | 291 | 9.7 | 24.1 | 0.00 | 0.00 | 0.00 | 50 | 1005.3 |
| 20260504200811 | 8 | 20 | 17.7 | 27.4 | 0.00 | 0.00 | 0.00 | 50 | 1005.1 |
| 20260504200308 | 9 | 273 | 22.5 | 29.0 | 0.00 | 0.00 | 0.00 | 48 | 1005.0 |
| 20260504195803 | 9 | 275 | 4.8 | 17.7 | 0.00 | 0.00 | 0.00 | 54 | 1004.7 |
| 20260504195300 | 9 | 288 | 17.7 | 25.7 | 0.00 | 0.00 | 0.00 | 50 | 1005.1 |
| 20260504194757 | 9 | 254 | 8.0 | 25.7 | 0.00 | 0.00 | 0.00 | 54 | 1004.7 |
| 20260504194253 | 10 | 240 | 16.1 | 30.6 | 0.00 | 0.00 | 0.00 | 50 | 1005.0 |
| 20260504193749 | 9 | 316 | 16.1 | 20.9 | 0.00 | 0.00 | 0.00 | 51 | 1004.7 |
| 20260504193247 | 8 | 298 | 9.7 | 25.7 | 0.00 | 0.00 | 0.00 | 54 | 1005.0 |
| 20260504192745 | 8 | 285 | 19.3 | 30.6 | 0.00 | 0.00 | 0.00 | 51 | 1004.9 |
| 20260504192243 | 8 | 21 | 14.5 | 37.0 | 0.00 | 0.00 | 0.00 | 52 | 1004.5 |
| 20260504191741 | 8 | 316 | 9.7 | 17.7 | 0.00 | 0.00 | 0.00 | 52 | 1004.5 |
| 20260504191238 | 8 | 287 | 17.7 | 29.0 | 0.00 | 0.00 | 0.00 | 50 | 1004.5 |
| 20260504190733 | 10 | 341 | 16.1 | 20.9 | 0.00 | 0.00 | 0.00 | 51 | 1004.3 |
| 20260504190230 | 10 | 262 | 17.7 | 33.8 | 0.00 | 0.00 | 0.00 | 51 | 1004.2 |
| 20260504185726 | 10 | 266 | 9.7 | 16.1 | 0.00 | 0.00 | 0.00 | 54 | 1004.1 |
| 20260504185223 | 9 | 346 | 16.1 | 24.1 | 0.00 | 0.00 | 0.00 | 50 | 1004.1 |
| 20260504184719 | 9 | 333 | 20.9 | 33.8 | 0.00 | 0.00 | 0.00 | 50 | 1004.2 |
| 20260504184215 | 8 | 271 | 14.5 | 22.5 | 0.00 | 0.00 | 0.00 | 52 | 1004.1 |
| 20260504183711 | 9 | 261 | 8.0 | 35.4 | 0.00 | 0.00 | 0.00 | 54 | 1004.1 |
| 20260504183208 | 10 | 277 | 17.7 | 24.1 | 0.00 | 0.00 | 0.00 | 51 | 1004.1 |
| 20260504182706 | 8 | 291 | 27.4 | 30.6 | 0.00 | 0.00 | 0.00 | 52 | 1003.9 |
| 20260504182204 | 9 | 329 | 11.3 | 25.7 | 0.00 | 0.00 | 0.00 | 54 | 1003.8 |
| 20260504181701 | 9 | 190 | 6.4 | 22.5 | 0.00 | 0.00 | 0.00 | 54 | 1003.9 |
| 20260504181158 | 9 | 286 | 14.5 | 24.1 | 0.00 | 0.00 | 0.00 | 53 | 1003.6 |
| 20260504180657 | 10 | 308 | 14.5 | 27.4 | 0.00 | 0.00 | 0.00 | 51 | 1003.7 |
| 20260504180155 | 8 | 262 | 16.1 | 25.7 | 0.00 | 0.00 | 0.00 | 55 | 1003.5 |
| 20260504175652 | 9 | 302 | 19.3 | 33.8 | 0.00 | 0.00 | 0.00 | 54 | 1003.4 |
| 20260504175149 | 9 | 298 | 24.1 | 38.6 | 0.00 | 0.00 | 0.00 | 53 | 1003.4 |
| 20260504174647 | 10 | 305 | 9.7 | 24.1 | 0.00 | 0.00 | 0.00 | 55 | 1003.5 |
| 20260504174144 | 9 | 346 | 16.1 | 24.1 | 0.00 | 0.00 | 0.00 | 54 | 1003.6 |
| 20260504173641 | 9 | 280 | 14.5 | 30.6 | 0.00 | 0.00 | 0.00 | 53 | 1003.2 |
| 20260504173138 | 10 | 356 | 9.7 | 22.5 | 0.00 | 0.00 | 0.00 | 55 | 1003.4 |
| 20260504172635 | 10 | 292 | 20.9 | 29.0 | 0.00 | 0.00 | 0.00 | 50 | 1003.0 |
| 20260504172131 | 8 | 334 | 16.1 | 30.6 | 0.00 | 0.00 | 0.00 | 55 | 1003.3 |
| 20260504171628 | 8 | 311 | 17.7 | 24.1 | 0.00 | 0.00 | 0.00 | 56 | 1003.2 |
| 20260504171125 | 9 | 322 | 14.5 | 30.6 | 0.00 | 0.00 | 0.00 | 56 | 1003.1 |
| 20260504170621 | 9 | 259 | 4.8 | 27.4 | 0.00 | 0.00 | 0.00 | 60 | 1002.8 |
| 20260504170119 | 10 | 276 | 9.7 | 29.0 | 0.00 | 0.00 | 0.00 | 56 | 1003.3 |
| 20260504151004 | 10 | 273 | 20.9 | 25.7 | 0.00 | 0.00 | 0.00 | 63 | 1001.7 |
| 20260504150502 | 9 | 13 | 6.4 | 25.7 | 0.00 | 0.00 | 0.00 | 65 | 1001.8 |
| 20260504140928 | 10 | 325 | 27.4 | 38.6 | 0.00 | 0.00 | 0.00 | 59 | 1001.1 |
| 20260504140424 | 9 | 285 | 17.7 | 29.0 | 0.00 | 0.00 | 0.00 | 59 | 1000.9 |
| 20260504130349 | 10 | 287 | 11.3 | 30.6 | 0.00 | 0.00 | 0.00 | 70 | 1000.2 |
| 20260504120312 | 8 | 281 | 11.3 | 12.9 | 0.00 | 0.00 | 0.00 | 72 | 999.7 |
| 20260504110236 | 9 | 281 | 3.2 | 9.7 | 0.00 | 0.00 | 0.00 | 69 | 998.5 |
| 20260504100154 | 10 | 299 | 9.7 | 25.7 | 0.00 | 0.00 | 0.00 | 66 | 998.3 |
| 20260504090116 | 14 | 297 | 16.1 | 25.7 | 0.00 | 0.00 | 0.00 | 54 | 997.5 |
| 20260504081547 | 16 | 299 | 17.7 | 27.4 | 0.00 | 0.00 | 0.00 | 44 | 996.6 |
| 20260504081042 | 15 | 215 | 11.3 | 17.7 | 0.00 | 0.00 | 0.00 | 45 | 995.7 |
| 20260504080539 | 16 | 297 | 19.3 | 25.7 | 0.00 | 0.00 | 0.00 | 44 | 995.8 |
| 20260504050352 | 13 | 238 | 6.4 | 11.3 | 0.00 | 0.00 | 0.00 | 49 | 1000.0 |
| 20260504045849 | 13 | 267 | 9.7 | 14.5 | 0.00 | 0.00 | 0.00 | 47 | 1000.2 |
| 20260504045344 | 13 | 267 | 9.7 | 14.5 | 0.00 | 0.00 | 0.00 | 47 | 1000.3 |
| 20260504044841 | 13 | 194 | 1.6 | 9.7 | 0.00 | 0.00 | 0.00 | 48 | 1000.5 |
| 20260504044339 | 14 | 223 | 3.2 | 6.4 | 0.00 | 0.00 | 0.00 | 47 | 1000.4 |
| 20260504043836 | 14 | 209 | 8.0 | 11.3 | 0.00 | 0.00 | 0.00 | 47 | 1000.5 |
| 20260504043333 | 14 | 310 | 3.2 | 9.7 | 0.00 | 0.00 | 0.00 | 48 | 1000.5 |
| 20260504042830 | 14 | 281 | 14.5 | 16.1 | 0.00 | 0.00 | 0.00 | 47 | 1000.6 |
| 20260504042326 | 14 | 207 | 6.4 | 11.3 | 0.00 | 0.00 | 0.00 | 46 | 1001.0 |
| 20260504041823 | 14 | 243 | 16.1 | 25.7 | 0.00 | 0.00 | 0.00 | 45 | 1000.9 |
| 20260504041319 | 14 | 225 | 6.4 | 9.7 | 0.00 | 0.00 | 0.00 | 47 | 1000.9 |
| 20260504040815 | 14 | 182 | 6.4 | 12.9 | 0.00 | 0.00 | 0.00 | 47 | 1001.2 |
| 20260504040313 | 15 | 203 | 3.2 | 9.7 | 0.00 | 0.00 | 0.00 | 47 | 1001.2 |
| 20260504035809 | 15 | 232 | 6.4 | 11.3 | 0.00 | 0.00 | 0.00 | 46 | 1001.3 |
| 20260504035306 | 15 | 208 | 8.0 | 12.9 | 0.00 | 0.00 | 0.00 | 46 | 1001.5 |
| 20260504034803 | 15 | 184 | 3.2 | 11.3 | 0.00 | 0.00 | 0.00 | 47 | 1001.6 |
| 20260504034301 | 15 | 222 | 6.4 | 11.3 | 0.00 | 0.00 | 0.00 | 46 | 1001.9 |
| 20260504033758 | 15 | 211 | 3.2 | 11.3 | 0.00 | 0.00 | 0.00 | 46 | 1001.6 |
| 20260504033255 | 15 | 204 | 3.2 | 9.7 | 0.00 | 0.00 | 0.00 | 45 | 1001.8 |
| 20260504032752 | 15 | 259 | 4.8 | 11.3 | 0.00 | 0.00 | 0.00 | 45 | 1001.9 |
| 20260504032249 | 15 | 224 | 6.4 | 9.7 | 0.00 | 0.00 | 0.00 | 45 | 1002.1 |
| 20260504031746 | 15 | 180 | 3.2 | 4.8 | 0.00 | 0.00 | 0.00 | 44 | 1002.4 |
| 20260504031243 | 15 | 156 | 4.8 | 9.7 | 0.00 | 0.00 | 0.00 | 43 | 1002.2 |
| 20260504030738 | 15 | 195 | 1.6 | 1.6 | 0.00 | 0.00 | 0.00 | 44 | 1002.5 |
| 20260504030236 | 15 | 205 | 3.2 | 6.4 | 0.00 | 0.00 | 0.00 | 43 | 1002.7 |
| 20260504025733 | 15 | 196 | 1.6 | 4.8 | 0.00 | 0.00 | 0.00 | 43 | 1002.7 |
| 20260504025230 | 15 | 204 | 3.2 | 3.2 | 0.00 | 0.00 | 0.00 | 43 | 1002.8 |
| 20260504024727 | 15 | 204 | 3.2 | 6.4 | 0.00 | 0.00 | 0.00 | 42 | 1003.0 |
| 20260504024223 | 15 | 200 | 1.6 | 6.4 | 0.00 | 0.00 | 0.00 | 43 | 1003.1 |
| 20260504023720 | 15 | 228 | 1.6 | 6.4 | 0.00 | 0.00 | 0.00 | 43 | 1003.1 |
| 20260504023216 | 15 | 251 | 4.8 | 6.4 | 0.00 | 0.00 | 0.00 | 43 | 1003.1 |
| 20260504022712 | 15 | 168 | 3.2 | 4.8 | 0.00 | 0.00 | 0.00 | 45 | 1003.2 |
| 20260504022208 | 15 | 221 | 1.6 | 3.2 | 0.00 | 0.00 | 0.00 | 45 | 1003.3 |
| 20260504021706 | 15 | 195 | 1.6 | 6.4 | 0.00 | 0.00 | 0.00 | 45 | 1003.4 |
| 20260504021203 | 15 | 153 | 1.6 | 4.8 | 0.00 | 0.00 | 0.00 | 45 | 1003.3 |
| 20260504020700 | 15 | 227 | 3.2 | 6.4 | 0.00 | 0.00 | 0.00 | 46 | 1003.6 |
| 20260504020155 | 15 | 241 | 4.8 | 6.4 | 0.00 | 0.00 | 0.00 | 46 | 1003.6 |
| 20260504015652 | 15 | 136 | 4.8 | 6.4 | 0.00 | 0.00 | 0.00 | 45 | 1003.8 |
| 20260504015149 | 16 | 219 | 1.6 | 3.2 | 0.00 | 0.00 | 0.00 | 44 | 1003.7 |
| 20260504014644 | 16 | 209 | 4.8 | 6.4 | 0.00 | 0.00 | 0.00 | 43 | 1003.8 |
| 20260504014142 | 16 | 215 | 0.0 | 6.4 | 0.00 | 0.00 | 0.00 | 43 | 1003.9 |
| 20260504013639 | 16 | 228 | 4.8 | 4.8 | 0.00 | 0.00 | 0.00 | 41 | 1003.9 |
| 20260504013136 | 16 | 262 | 3.2 | 4.8 | 0.00 | 0.00 | 0.00 | 41 | 1004.0 |
| 20260504012633 | 16 | 219 | 3.2 | 9.7 | 0.00 | 0.00 | 0.00 | 42 | 1004.0 |
| 20260504012131 | 16 | 273 | 1.6 | 4.8 | 0.00 | 0.00 | 0.00 | 42 | 1004.3 |
| 20260504011628 | 16 | 273 | 1.6 | 4.8 | 0.00 | 0.00 | 0.00 | 42 | 1004.3 |
| 20260504011124 | 16 | 233 | 3.2 | 3.2 | 0.00 | 0.00 | 0.00 | 42 | 1004.1 |
| 20260504010620 | 17 | 252 | 1.6 | 3.2 | 0.00 | 0.00 | 0.00 | 41 | 1004.5 |
| 20260504010116 | 17 | 264 | 3.2 | 4.8 | 0.00 | 0.00 | 0.00 | 39 | 1004.3 |
| 20260504005613 | 18 | 255 | 1.6 | 3.2 | 0.00 | 0.00 | 0.00 | 36 | 1004.5 |
| 20260504005110 | 18 | 197 | 3.2 | 3.2 | 0.00 | 0.00 | 0.00 | 36 | 1004.7 |
| 20260504004608 | 18 | 257 | 4.8 | 6.4 | 0.00 | 0.00 | 0.00 | 36 | 1004.5 |
| 20260504004105 | 18 | 284 | 8.0 | 11.3 | 0.00 | 0.00 | 0.00 | 33 | 1004.7 |
| 20260504003601 | 18 | 255 | 9.7 | 11.3 | 0.00 | 0.00 | 0.00 | 33 | 1004.6 |